Temp
-1 -1 -0 -0 0 0 0 1 1 1 1 2 2 2 2 2 2 3 3 3 4 4 4 5 5 6 6 7 7 7 7 8 8 9 10 10 11 11 12 12 12 12 13 13 13 13 13 13 13 13 13 13 13 13 14 14 14 14 14 14 14 14 15 15 15 15 15 15 15
-1 -1 -0 -0 0 0 0 0 0 0 1 1 1 1 1 2 2 2 2 3 3 3 3 4 5 6 6 7 7 7 7 7 8 9 9 10 10 11 11 12 12 12 12 13 13 13 13 13 13 13 13 13 13 13 13 13 13 14 14 14 14 14 14 14 14 14 15 15 15
-1 -1 -0 -0 -0 -0 -0 -0 -0 -0 0 1 1 1 1 1 1 2 2 2 3 3 3 4 5 6 7 7 8 8 7 7 7 8 9 10 10 10 11 11 12 12 12 12 13 13 13 13 13 13 13 13 13 13 13 13 13 13 13 13 14 14 14 14 14 14 14 14 14
-1 -1 -1 -1 -1 -1 -1 -1 -1 -1 -0 0 1 1 1 1 1 1 2 2 2 3 3 3 4 5 6 7 7 8 8 7 7 8 8 9 10 10 10 11 11 11 12 12 13 13 13 13 13 13 13 13 13 13 13 13 13 13 13 13 13 13 13 13 13 13 14 14 14
-1 -1 -1 -1 -1 -1 -2 -1 -1 -1 -1 -1 -0 0 1 1 1 1 1 2 2 2 3 4 4 5 6 7 7 8 8 8 8 8 8 9 9 10 10 10 11 11 12 12 12 13 13 13 13 13 13 13 13 13 13 13 13 12 12 12 13 13 13 13 13 13 13 13 14
-1 -2 -2 -2 -2 -2 -2 -2 -2 -1 -1 -1 -1 -0 0 1 1 1 1 1 2 3 3 4 4 5 6 7 7 8 8 8 8 8 8 8 9 9 10 10 10 11 11 12 12 12 13 13 13 13 13 13 13 13 13 13 13 12 12 12 12 12 13 13 13 13 13 13 13
-2 -2 -2 -2 -2 -2 -2 -1 -1 -1 -1 -1 -1 -1 0 1 1 1 1 2 2 3 3 4 4 5 6 7 7 8 8 8 8 8 8 8 9 9 9 9 10 10 11 11 12 12 12 12 13 13 13 13 13 13 13 13 13 12 12 11 11 11 11 12 12 12 12 12 13
-2 -2 -2 -2 -1 -1 -1 -1 -1 -1 -1 -1 -1 -1 0 1 1 2 2 2 3 3 3 4 4 5 5 6 7 8 8 8 8 8 8 8 9 9 9 9 10 10 10 11 11 11 12 12 12 12 12 12 12 12 12 13 13 12 12 12 11 11 11 11 11 11 11 12 12
-1 -1 -1 -1 -1 -1 -1 -1 -1 -1 -1 -1 -1 -0 0 1 2 2 2 2 3 3 3 4 4 5 5 6 7 7 8 8 8 8 8 8 9 9 9 9 9 10 10 11 11 12 12 11 12 12 12 12 12 12 12 12 12 12 12 12 12 11 11 11 11 11 11 11 11
-1 -1 -1 -1 -1 -1 -1 -1 -1 -1 -1 -1 -0 0 1 1 1 2 2 2 3 3 3 4 5 5 5 6 6 7 8 8 8 8 8 8 8 8 8 9 9 9 10 11 11 11 11 11 11 11 11 11 11 11 11 11 12 12 12 12 12 12 12 11 11 11 11 11 11
-1 -1 -1 -1 -1 -1 -1 -1 -1 -1 -1 -0 -0 0 1 1 2 2 2 3 3 3 4 4 5 5 5 6 6 7 8 8 7 7 8 8 8 8 8 8 9 9 10 10 11 11 11 11 11 11 11 11 11 11 11 11 11 11 12 12 12 12 12 12 12 12 11 11 11
-1 -1 -1 -1 -0 -0 -0 -0 -1 -0 -0 -0 0 1 1 1 2 2 2 3 3 3 4 5 5 5 6 6 7 7 7 7 7 7 8 8 8 8 8 8 9 9 9 10 10 10 10 11 11 11 11 11 11 11 11 11 11 11 11 11 12 12 12 12 12 12 12 11 11
-1 -1 -1 -0 -0 -0 -0 -0 -0 -0 0 0 0 1 1 1 2 2 2 2 3 3 4 5 5 6 6 6 7 7 7 7 7 7 8 8 8 8 8 8 9 9 9 10 10 10 10 11 11 11 11 11 11 11 11 10 11 11 11 11 11 11 11 11 11 11 11 11 11
-1 -1 -0 -0 0 0 0 0 0 0 0 1 1 1 1 1 2 2 2 2 3 3 4 4 5 6 6 6 6 6 7 7 7 7 8 8 8 8 8 8 9 9 9 9 9 10 10 10 11 11 11 11 11 10 10 10 10 11 11 11 11 11 11 11 11 11 11 11 11
-0 -0 -0 0 0 0 0 0 0 0 1 1 1 1 1 2 2 2 2 2 2 3 3 4 5 5 6 6 6 6 7 7 7 7 7 8 8 8 8 8 8 9 9 9 9 9 10 10 10 11 11 10 10 10 10 10 10 10 11 11 11 11 11 11 11 11 11 11 11
-0 0 0 0 0 0 0 0 0 0 0 1 1 1 1 1 2 2 2 2 2 3 3 4 4 5 5 6 6 6 6 6 7 7 7 7 8 8 8 8 8 8 9 9 9 9 9 9 10 10 10 10 10 10 10 10 10 10 10 11 11 11 11 11 11 11 11 11 11
-0 0 0 0 0 0 0 0 0 0 0 1 1 1 1 1 2 2 2 2 2 2 3 3 4 4 5 5 5 5 6 6 6 7 7 7 7 8 8 8 8 8 8 8 9 9 9 9 9 9 9 10 9 9 9 9 9 10 10 10 10 10 10 10 11 11 11 11 11
-0 0 0 0 0 0 0 0 0 0 0 0 1 1 1 1 1 2 2 2 2 2 2 3 4 4 5 5 5 5 6 6 6 7 7 7 7 7 8 8 8 8 8 8 8 9 8 8 8 9 9 9 9 9 9 9 9 9 10 10 10 10 10 10 10 11 11 11 11
0 0 0 0 0 1 1 0 0 0 0 0 1 1 1 1 1 2 2 2 2 2 2 3 3 4 4 5 5 5 5 6 6 6 7 7 7 7 7 8 8 8 8 8 8 8 8 8 8 8 9 9 9 9 9 9 9 9 9 9 10 10 10 10 10 10 10 10 10
0 0 0 0 0 1 1 0 0 0 0 0 1 1 1 1 1 1 2 2 2 2 2 2 3 4 4 4 5 5 5 5 6 6 7 7 7 7 7 7 7 7 7 8 8 8 8 8 8 8 8 9 9 9 9 9 9 9 9 9 9 9 9 9 10 10 10 10 10
0 0 0 0 0 1 1 0 0 0 0 0 1 1 1 1 1 1 2 2 2 2 2 3 3 4 4 4 5 5 5 5 6 6 6 7 7 7 7 7 7 7 7 7 7 8 8 8 8 8 8 8 8 8 9 9 9 9 9 9 9 9 9 9 9 9 10 10 10
0 0 0 0 0 1 0 0 0 0 0 1 1 1 1 1 1 1 1 2 2 2 2 3 3 3 4 4 4 4 5 5 5 6 6 6 7 7 7 7 7 7 7 7 7 7 7 7 7 7 7 7 8 8 8 8 8 8 8 8 8 8 9 9 9 9 9 9 9
0 0 0 0 1 1 0 1 1 1 1 1 1 1 1 1 1 1 1 1 2 2 2 3 3 3 3 4 4 4 4 5 5 6 6 6 6 7 7 7 7 7 7 7 7 7 7 7 7 7 7 7 8 8 8 8 8 8 7 7 7 8 8 8 8 8 9 9 9
0 0 0 1 1 1 1 1 1 1 1 0 0 0 1 1 1 1 1 1 2 2 2 2 2 3 3 3 4 4 4 5 5 6 6 6 6 6 6 7 7 7 7 7 7 7 7 7 7 7 7 7 7 8 8 7 7 7 7 7 7 7 7 7 8 8 8 8 8
-0 0 0 1 1 1 1 1 1 0 0 0 0 0 1 1 1 1 1 1 2 2 2 2 2 3 3 3 4 4 4 5 5 5 6 6 6 6 6 6 6 6 6 6 6 6 6 6 7 7 7 7 7 7 7 7 7 7 7 7 7 7 7 7 7 7 7 7 7
-0 0 0 0 1 1 1 0 0 0 0 0 0 1 1 1 1 1 1 1 2 2 2 2 2 3 3 3 3 4 4 4 5 5 5 5 6 6 6 6 6 6 6 6 6 6 6 6 6 6 6 7 7 7 7 7 6 6 6 6 6 6 6 6 6 6 6 7 7
-0 -0 0 0 0 1 1 1 0 0 0 1 1 1 1 1 1 1 1 1 2 2 2 2 2 2 3 3 3 4 4 4 4 5 5 5 5 6 6 6 6 6 6 5 5 5 5 5 5 5 6 6 6 6 6 6 6 6 6 6 6 6 6 6 6 6 6 6 6
-0 -0 -0 0 0 1 1 1 1 1 1 1 1 1 1 1 1 1 1 1 2 2 2 2 2 3 3 3 3 3 4 4 4 5 5 5 5 5 5 5 5 5 5 5 5 5 5 5 5 5 5 5 5 5 6 6 6 6 6 6 5 5 6 6 6 6 6 6 6
-0 -0 -0 -0 0 1 1 1 1 1 1 1 1 1 1 1 1 1 1 1 2 2 2 2 2 3 3 3 3 3 4 4 4 4 4 5 5 5 5 5 5 5 5 5 5 5 4 4 4 4 4 4 4 5 5 5 6 6 6 5 5 5 5 5 6 6 6 6 6
-0 -0 -0 -0 0 1 1 1 1 1 1 1 1 1 1 1 1 1 2 2 2 2 2 2 2 3 3 3 3 3 3 4 4 4 4 4 5 5 5 5 5 5 5 5 4 4 4 4 4 4 4 4 4 4 4 5 5 5 5 5 5 5 5 5 5 5 6 6 6
-0 -0 -0 -0 0 1 0 0 1 1 1 1 1 1 1 1 1 1 2 2 2 2 2 2 2 3 3 3 3 3 3 3 4 4 4 4 4 4 4 4 5 4 4 4 4 4 4 4 4 3 3 3 3 3 3 4 4 4 4 5 5 5 5 5 5 5 5 6 6
-0 -0 -0 -0 0 1 0 0 0 1 1 1 1 1 1 1 1 1 1 2 2 2 2 2 2 3 3 3 3 3 3 3 4 4 4 4 4 4 4 4 4 4 4 4 4 4 4 3 3 3 3 3 3 3 3 3 3 4 4 4 4 4 4 4 4 4 5 5 5
-0 -0 -0 0 1 1 0 0 0 1 1 1 1 1 1 1 1 1 1 1 2 2 2 2 2 2 2 3 3 3 3 3 3 4 4 4 4 4 4 4 4 4 4 4 4 4 3 3 3 3 3 3 3 3 3 3 3 3 3 3 3 4 4 4 4 4 4 4 5
-0 -0 -0 -0 1 1 0 0 0 0 1 1 1 1 1 1 1 1 1 1 2 2 2 2 2 2 2 2 3 3 3 3 3 3 4 4 4 4 4 4 4 4 4 4 3 3 3 3 3 3 3 3 3 2 2 2 2 2 2 3 3 3 3 3 3 3 4 4 4
-0 -0 -0 -0 0 0 0 0 0 0 1 1 1 1 1 1 1 1 1 1 1 2 2 2 2 2 2 2 2 2 3 3 3 3 3 3 4 4 3 3 3 3 3 3 3 3 3 3 3 3 2 2 2 2 2 2 2 2 2 2 2 2 2 2 3 3 3 3 3
-0 -0 -0 -0 0 0 0 0 0 0 0 1 1 1 1 1 1 1 1 1 1 1 2 2 2 2 2 2 2 2 2 2 3 3 3 3 3 3 3 3 3 3 3 3 3 2 2 2 2 2 2 2 2 2 2 2 2 1 1 1 1 1 1 2 2 2 2 3 3
-0 -0 -0 -0 -0 -0 -0 -0 0 0 0 0 0 1 1 1 1 1 1 1 1 1 1 1 2 2 2 2 2 2 2 2 2 3 3 3 3 3 3 2 2 2 2 2 2 2 2 2 2 2 2 2 2 2 2 1 1 1 1 1 1 1 1 1 1 2 2 2 2
-0 -0 -0 -0 -0 -0 -0 -0 0 0 0 0 0 0 1 1 1 1 1 1 1 1 1 1 1 2 2 2 2 2 2 2 2 2 2 2 2 2 2 2 2 2 2 2 2 2 2 2 2 2 2 2 2 2 1 1 1 0 0 0 0 0 1 1 1 1 1 1 1
-0 -0 -0 -0 -0 -0 -0 -0 -0 0 0 0 0 1 1 1 1 1 1 1 1 1 1 1 1 1 2 2 2 2 2 2 2 2 2 2 2 2 2 2 2 2 2 2 2 2 1 1 1 2 2 2 2 1 1 1 0 0 0 0 0 0 0 0 0 0 0 1 1
-0 -0 -0 -0 -0 -0 -0 -0 -0 0 0 0 0 0 0 1 1 1 1 1 1 1 1 1 1 1 1 2 2 2 2 2 2 2 2 2 2 2 2 2 1 1 1 1 1 1 1 1 1 1 1 1 1 1 1 1 0 0 -0 -0 -0 -0 -0 -0 -0 0 0 0 0
-0 -0 -0 -0 -0 -0 -0 -0 -0 -0 0 0 0 0 0 0 0 0 1 1 1 1 1 1 1 1 1 1 1 2 2 1 1 2 2 1 1 1 1 1 1 1 1 1 1 1 1 1 1 1 1 1 1 1 1 1 1 0 -0 -0 -0 -0 -1 -0 -0 -0 -0 -0 -0
Height
751 751 751 750 750 749 749 748 747 747 746 746 745 744 744 743 742 741 741 741 740 740 739 739 739 738 737 736 735 735 734 733 732 731 730 729 729 728 728 727 727 727 727 727 727 727 726 726 726 726 726 726 727 727 728 729 730 731 732 733 733 733 733 734 734 735 735 735 736
751 751 751 750 750 749 748 748 747 746 746 745 745 744 743 743 742 741 740 740 740 740 739 739 738 738 737 736 735 735 734 733 732 731 730 730 729 728 728 728 728 728 728 728 727 727 727 727 727 727 728 728 728 728 728 729 729 730 731 731 732 732 732 733 733 734 734 735 735
750 750 750 750 749 749 748 747 746 745 745 744 744 743 743 742 742 741 740 740 739 739 739 738 738 737 737 736 735 735 734 734 732 731 731 730 729 729 728 728 728 728 728 728 728 728 728 728 728 728 728 729 729 729 729 729 729 730 730 730 731 731 731 732 732 733 733 734 734
750 750 750 749 749 748 747 747 746 745 744 744 744 743 743 742 741 741 740 739 739 738 738 738 737 736 736 736 735 735 734 734 733 732 731 730 730 729 729 728 728 728 728 728 728 728 728 728 728 729 729 729 729 729 729 729 729 729 730 730 730 730 731 731 731 731 732 733 733
750 749 749 748 748 747 746 746 745 745 744 744 743 743 742 741 741 740 740 739 738 737 737 737 736 736 735 735 735 734 734 733 733 732 731 730 730 729 729 729 729 729 729 729 729 728 728 728 728 728 728 728 728 729 729 729 729 729 730 730 730 730 730 730 730 730 731 732 732
749 748 748 748 747 746 746 745 745 744 744 743 743 742 741 741 740 740 739 739 737 737 736 736 735 735 735 735 734 734 733 733 732 732 731 730 730 729 729 729 729 729 729 729 728 728 728 728 728 728 728 728 728 728 729 729 729 729 729 729 729 729 729 730 730 730 730 731 732
748 748 747 747 746 746 745 745 744 744 743 743 742 741 741 740 740 739 739 738 737 736 735 735 735 734 734 734 733 733 733 732 732 731 731 730 730 730 729 729 729 729 728 728 728 728 728 728 728 728 728 728 728 728 729 729 729 729 729 729 729 729 729 729 730 730 730 731 731
747 747 747 746 746 745 745 744 744 743 743 742 741 741 740 739 739 738 738 737 736 736 735 734 734 733 733 733 732 732 732 732 731 731 730 730 730 729 729 729 729 728 728 728 728 728 728 728 727 728 728 728 728 728 729 729 729 729 729 728 728 728 729 729 729 730 730 730 731
747 746 746 746 745 745 745 744 744 743 742 742 741 740 740 739 738 738 737 737 736 735 734 734 733 732 732 732 732 731 731 731 731 730 730 730 730 729 729 729 729 728 728 728 728 727 727 728 728 728 728 728 728 728 729 729 729 729 729 728 728 728 728 729 729 729 729 729 730
747 746 746 746 745 745 745 744 743 743 742 741 740 740 739 738 738 737 737 736 735 734 734 733 732 731 731 731 731 731 731 731 730 730 730 730 730 729 729 729 729 728 728 727 727 727 728 728 728 728 728 728 728 728 728 728 729 729 728 729 728 728 728 728 728 728 728 728 729
747 746 746 746 745 745 745 744 743 742 741 740 740 739 738 738 737 737 736 735 735 734 733 732 731 730 730 730 730 730 730 730 730 730 730 730 729 729 729 729 728 728 727 727 727 728 728 728 728 727 727 727 728 728 728 728 729 729 729 729 728 728 728 728 728 728 728 728 728
747 746 746 745 745 745 744 744 743 742 741 740 739 738 738 737 737 736 736 735 734 733 732 731 730 730 729 729 729 729 729 729 730 730 729 729 729 729 729 728 728 728 727 727 728 728 728 728 728 727 727 727 728 728 728 729 729 729 729 729 728 728 728 728 728 728 728 728 729
746 746 745 745 745 744 744 743 742 741 740 740 739 738 737 737 736 735 735 734 733 732 731 730 730 729 729 729 728 728 729 729 729 729 729 729 728 728 728 728 728 728 727 727 728 728 728 728 727 727 727 727 728 728 729 729 729 729 729 729 728 728 728 728 728 729 729 729 729
746 745 745 745 744 744 743 742 741 740 740 739 738 737 737 736 735 735 734 733 732 731 731 730 730 729 729 728 728 728 728 728 728 728 728 728 728 728 728 728 727 727 727 728 728 728 728 728 727 727 727 727 728 729 729 729 729 729 729 729 728 728 728 729 729 730 730 730 730
745 745 744 744 743 743 742 741 740 740 739 738 737 737 736 735 735 734 733 733 732 731 730 730 729 729 729 728 728 728 728 728 728 727 727 727 727 727 727 727 727 727 727 727 728 728 728 728 727 727 727 727 728 729 729 729 730 729 729 729 728 729 729 729 730 730 730 730 730
745 744 743 743 742 742 741 740 740 739 738 737 736 736 735 734 734 733 733 732 731 730 730 729 729 728 728 728 727 727 727 727 727 727 727 727 727 727 727 727 727 727 727 727 727 727 728 728 727 727 727 727 728 729 729 730 730 730 729 729 729 730 730 730 730 730 730 730 730
744 743 742 742 741 741 740 739 739 738 737 736 735 735 734 733 733 732 732 731 730 730 730 729 729 728 728 727 727 727 727 726 726 726 726 726 726 726 727 727 727 727 727 727 727 727 727 727 728 728 728 728 728 728 729 729 730 730 730 730 730 730 730 730 730 730 730 730 730
742 742 741 741 740 740 739 738 737 736 736 735 734 734 733 733 732 731 731 730 730 730 729 728 728 728 727 727 727 726 726 726 726 726 726 726 726 726 726 726 727 727 727 727 727 727 727 727 727 728 728 728 728 728 728 729 730 730 730 730 731 731 731 731 731 731 731 731 731
742 741 741 740 740 739 738 737 736 735 735 734 733 733 732 732 731 730 730 729 729 729 728 728 727 727 727 727 726 726 726 726 725 725 726 726 726 726 726 726 726 726 726 726 727 727 727 727 727 727 727 727 727 728 728 729 729 730 730 731 731 731 731 731 731 731 731 731 731
741 740 740 740 739 738 737 737 736 735 734 733 733 732 731 731 730 730 729 729 728 728 728 727 727 726 726 726 726 726 725 725 725 725 725 725 725 726 726 726 726 726 726 726 726 727 727 727 727 727 727 727 727 727 728 728 729 730 730 731 731 731 731 731 731 731 731 731 731
740 740 739 739 738 737 736 736 735 734 733 733 732 731 731 730 730 729 729 728 728 727 727 726 726 726 726 725 725 725 725 725 725 725 725 725 725 725 725 726 726 726 726 726 726 727 727 727 727 727 727 727 727 727 727 728 729 730 730 731 731 731 731 731 731 731 731 731 732
740 739 739 738 737 736 736 735 734 734 733 732 731 731 730 730 729 729 728 728 727 727 726 726 726 725 725 725 725 725 725 725 725 725 725 725 725 725 725 725 725 726 726 726 727 727 727 727 727 727 727 727 726 726 727 727 728 729 730 731 731 731 731 731 731 731 732 732 732
739 739 738 737 737 736 735 735 734 733 732 731 731 730 730 729 729 728 728 727 727 727 726 726 725 725 725 725 725 725 725 725 724 724 725 725 725 725 725 725 725 726 726 726 727 727 727 727 728 728 728 727 727 726 727 727 728 729 730 730 731 731 731 731 731 732 732 732 732
738 738 737 737 736 735 735 734 733 732 732 731 730 730 729 729 728 728 727 727 727 726 726 725 725 725 725 725 725 724 724 724 724 724 724 725 725 725 725 725 725 726 726 727 727 727 728 728 728 728 728 727 727 727 727 728 728 729 730 730 730 731 731 731 731 732 732 732 733
738 737 737 736 735 735 734 734 733 732 731 730 730 730 729 729 728 728 727 727 726 726 725 725 725 725 724 724 724 724 724 724 724 724 724 725 725 725 725 725 726 726 727 727 727 728 728 728 728 728 728 728 727 727 728 728 728 729 730 730 730 731 731 731 731 732 732 732 733
737 737 736 736 735 735 734 733 732 731 731 730 730 730 729 729 728 727 727 726 726 725 725 725 725 724 724 724 724 724 724 724 724 724 724 725 725 725 725 725 726 726 727 727 728 728 728 728 728 728 728 728 728 728 728 728 729 729 730 730 731 731 731 731 731 732 732 733 733
737 736 736 735 735 734 734 733 732 731 730 730 730 730 729 729 728 727 727 726 726 725 725 725 724 724 724 724 724 724 724 724 724 724 725 725 725 725 725 726 726 727 727 728 728 728 728 729 729 729 729 729 729 728 728 729 729 730 730 731 731 731 731 731 731 732 732 733 734
737 736 735 735 735 734 733 732 732 731 730 730 730 730 729 729 728 727 727 726 726 725 725 725 724 724 724 724 724 724 724 724 724 724 725 725 725 725 725 726 727 727 728 728 728 728 729 729 729 729 730 730 730 729 729 729 729 730 731 731 732 732 732 731 731 732 732 733 734
736 736 735 735 734 734 733 732 732 731 731 730 730 730 729 729 728 727 727 726 726 725 725 725 724 724 724 724 724 724 724 724 724 724 725 725 725 725 726 726 727 728 728 728 728 729 729 729 730 730 730 730 730 730 730 730 730 730 731 732 732 732 732 732 732 732 732 733 734
736 735 735 734 734 734 733 732 732 731 731 730 730 730 729 729 728 728 727 726 726 725 725 725 724 724 724 724 724 724 724 724 724 725 725 725 725 726 726 727 727 728 728 728 729 729 729 730 730 730 730 730 731 731 731 731 731 731 732 732 733 733 733 733 733 733 733 733 733
735 735 735 734 734 733 733 732 732 731 731 731 730 730 730 729 728 728 727 727 726 726 725 725 725 724 724 724 724 724 724 724 725 725 725 725 725 726 727 727 728 728 729 729 729 729 729 730 730 730 731 731 731 731 731 731 732 732 732 732 733 733 734 734 734 734 734 734 734
735 735 734 734 734 733 733 732 732 732 731 731 731 730 730 729 729 728 728 727 727 726 726 725 725 725 725 725 725 725 725 725 725 725 725 725 726 726 727 728 728 729 729 729 729 729 730 730 730 730 731 731 732 732 732 732 732 733 733 733 734 734 735 735 735 735 735 735 735
734 734 734 733 733 733 733 732 732 732 732 731 731 730 730 730 729 729 728 728 727 727 726 726 725 725 725 725 725 725 725 725 725 725 726 726 726 727 728 728 729 729 729 729 730 730 730 730 730 731 731 732 732 732 733 733 733 734 734 734 734 735 735 735 735 735 735 735 735
733 733 733 733 733 733 733 732 732 732 732 731 731 731 730 730 730 729 729 728 728 727 727 726 726 726 726 725 725 725 726 726 726 726 726 726 727 727 728 728 729 729 730 730 730 730 730 730 731 731 732 732 732 733 733 733 734 734 734 735 735 735 736 736 736 736 736 737 737
733 733 733 733 732 732 732 732 732 732 732 732 731 731 731 730 730 730 729 729 728 728 727 727 727 727 726 726 726 726 726 726 726 727 727 727 727 728 728 729 729 730 730 730 730 730 731 731 731 732 732 732 733 733 733 734 734 735 735 735 736 736 737 737 737 737 737 738 738
732 732 732 732 732 732 732 732 732 732 732 732 732 731 731 731 730 730 730 729 729 728 728 728 728 727 727 727 727 727 727 727 727 727 728 728 728 728 729 729 730 730 730 730 730 731 731 731 731 732 732 733 733 733 734 734 735 735 735 736 736 737 737 737 737 738 738 739 739
732 732 732 732 732 732 732 732 731 731 731 732 732 732 731 731 731 730 730 730 730 729 729 728 728 728 728 728 728 728 728 728 728 728 728 729 729 729 729 730 730 730 730 731 731 731 731 732 732 732 732 733 733 733 734 734 735 735 736 737 737 738 738 738 738 738 739 740 740
731 732 732 732 731 731 731 731 731 731 731 731 732 732 732 731 731 731 731 730 730 730 729 729 729 729 729 729 729 729 729 729 729 729 729 730 730 730 730 730 730 730 731 731 731 731 732 732 732 733 733 733 733 734 734 735 735 736 736 737 738 738 739 739 739 739 740 740 741
731 731 731 731 731 731 731 731 731 731 731 731 731 732 732 732 731 731 731 731 731 730 730 730 730 730 729 729 729 729 730 730 730 730 730 730 730 730 730 730 730 731 731 732 732 732 732 732 733 733 733 733 733 734 734 735 735 736 737 737 738 738 739 739 740 740 740 741 742
730 731 731 731 731 731 731 731 731 730 730 731 731 731 732 732 732 732 732 731 731 731 731 730 730 730 730 730 730 730 730 730 730 731 731 731 731 731 731 731 731 731 732 732 732 732 733 733 733 733 733 734 734 734 735 735 736 736 737 738 738 739 739 740 740 741 741 742 742
730 730 730 730 730 730 730 730 730 730 730 730 731 731 731 732 732 732 732 732 732 732 731 731 731 731 731 731 731 731 731 731 731 731 732 732 732 732 732 732 732 732 733 733 733 733 733 733 733 733 734 734 734 734 735 735 736 736 737 738 738 739 740 740 741 741 741 742 742
Wind_Speed
7 7 8 9 9 9 9 9 9 9 10 10 11 11 12 12 14 14 14 15 15 16 17 18 18 19 18 16 15 15 16 16 15 13 10 8 6 4 3 6 6 6 6 5 3 3 2 2 2 2 2 3 4 6 8 9 9 10 12 13 14 14 15 16 18 20 23 24 25
7 7 8 9 9 9 9 10 11 11 11 11 11 12 13 13 14 15 15 15 16 16 18 19 19 19 18 16 14 14 15 16 16 14 11 8 7 5 4 5 7 7 7 7 6 5 4 3 4 4 4 4 4 5 7 7 8 9 11 12 13 13 13 13 14 16 18 21 23
7 8 8 9 9 9 10 11 12 13 13 12 12 12 13 14 14 15 15 16 17 18 18 19 20 20 18 16 14 14 14 15 16 15 12 9 7 6 5 5 6 7 8 8 8 7 6 5 5 6 6 6 5 5 6 6 7 8 9 10 12 12 13 12 12 13 14 16 19
8 9 9 10 10 10 11 11 12 13 13 12 12 12 13 13 14 15 16 17 18 18 18 18 19 19 18 17 15 14 13 14 15 15 13 9 7 6 6 6 6 6 7 8 8 8 8 7 7 8 8 8 7 6 5 5 5 6 8 9 11 12 13 13 13 13 14 15 17
9 9 10 10 11 11 12 12 13 13 13 12 12 12 13 14 14 15 16 17 17 17 17 17 18 18 18 17 16 15 14 13 13 14 12 9 7 6 6 6 5 5 6 6 7 7 7 8 8 8 9 9 8 7 5 4 4 4 6 7 9 11 12 13 13 15 16 17 18
10 10 11 11 11 12 12 12 12 13 13 13 13 13 14 14 14 14 15 16 17 18 17 17 16 16 16 16 16 16 14 12 12 12 12 10 7 6 6 6 6 5 5 5 5 6 6 7 7 8 9 9 8 7 6 4 4 4 3 4 5 6 8 10 12 14 16 17 18
11 11 11 11 11 11 12 12 12 13 13 14 14 14 15 15 15 16 16 17 18 18 18 18 16 15 15 15 15 15 13 12 11 11 11 10 7 6 7 7 6 6 5 5 5 5 5 5 6 7 7 8 7 6 5 4 4 4 3 2 2 2 4 6 8 10 11 13 14
10 10 10 10 10 11 12 12 13 14 14 14 15 15 15 15 15 16 16 17 18 19 19 18 17 15 14 14 14 14 13 11 10 11 11 10 8 6 6 7 7 6 5 5 5 5 5 5 5 5 5 5 5 4 4 4 4 4 4 3 2 1 1 2 4 5 7 8 9
9 8 8 9 9 11 12 13 13 14 15 15 15 15 14 14 14 15 16 17 18 19 19 19 17 15 13 13 13 13 12 10 10 11 11 10 8 6 6 7 7 6 6 5 6 6 6 5 5 4 3 3 2 2 2 3 3 3 3 3 3 2 2 1 0 1 3 4 5
8 8 8 8 10 11 12 13 14 14 15 15 15 14 14 14 14 15 16 17 18 19 19 19 17 15 13 12 12 11 10 9 9 10 11 10 7 5 5 6 7 7 6 5 6 6 6 6 5 4 3 2 1 0 1 2 3 3 3 3 3 3 3 3 3 2 1 1 2
8 8 8 10 11 11 12 13 14 14 15 15 15 14 14 14 14 15 16 17 18 19 19 18 16 14 12 11 11 10 8 8 9 10 11 9 7 5 5 6 7 6 6 6 6 6 6 6 5 4 3 2 2 1 1 2 2 2 2 3 3 3 3 4 4 4 4 3 2
8 9 10 11 11 12 12 13 14 14 14 14 14 14 14 14 14 15 15 16 18 18 18 16 13 11 9 9 8 7 6 7 9 10 10 8 6 5 6 6 7 6 6 6 6 7 7 6 6 4 3 3 2 2 2 2 2 1 1 2 2 3 3 4 4 4 4 4 3
9 9 10 11 11 11 11 12 13 13 14 14 14 14 14 15 15 15 16 17 17 17 16 13 10 7 7 7 6 6 6 8 9 10 9 7 6 6 7 7 7 7 7 7 8 8 7 7 6 5 4 4 3 3 3 3 2 1 1 1 2 2 2 3 3 3 3 3 3
8 9 10 10 9 9 10 11 12 13 13 13 14 14 14 15 15 15 16 16 16 16 15 12 9 6 6 6 7 7 8 9 9 9 8 7 7 8 8 8 8 8 8 9 9 8 8 8 7 6 6 5 3 2 2 2 2 2 2 2 3 3 3 2 2 2 2 2 2
7 7 8 8 8 9 9 11 12 13 13 14 14 15 15 16 16 16 16 16 16 15 14 13 10 8 6 6 7 8 8 8 8 8 7 7 7 8 9 9 9 9 9 9 9 8 8 7 7 7 6 6 4 2 2 2 2 2 3 3 3 3 3 2 1 1 1 1 1
6 6 6 7 8 9 10 12 13 13 14 14 15 15 16 16 16 16 16 16 16 15 14 13 12 10 9 8 7 7 8 8 8 7 7 7 8 9 10 10 10 10 10 10 9 8 7 6 6 6 6 6 5 3 2 2 2 3 3 3 4 3 3 2 1 1 1 2 2
6 7 7 8 9 11 12 13 13 14 14 14 14 15 15 15 16 16 16 15 15 15 14 13 12 11 10 9 8 8 8 8 8 7 7 8 9 10 10 10 10 10 10 9 9 8 7 6 6 6 6 6 6 5 4 3 3 3 3 3 3 3 3 2 2 2 3 3 4
7 7 8 9 10 12 13 13 14 13 13 13 13 13 14 14 14 15 15 15 15 14 14 13 12 11 10 10 9 8 8 8 8 8 8 9 9 10 10 10 10 10 9 9 8 8 7 7 7 7 7 6 6 5 4 3 3 3 3 3 2 2 3 3 4 4 5 5 5
8 8 9 10 11 12 13 13 13 12 12 12 12 12 13 13 13 14 14 14 14 14 14 13 12 11 11 10 9 9 9 8 8 8 8 9 9 10 10 10 10 10 9 8 8 8 8 8 8 8 7 6 5 4 3 3 2 3 3 2 2 2 3 4 5 5 6 6 6
8 9 10 11 12 13 13 12 12 12 11 11 11 12 12 12 12 13 13 13 13 13 13 13 13 12 11 10 9 9 9 8 8 8 8 9 9 9 10 10 10 9 9 8 8 8 8 9 9 8 7 7 6 5 4 3 2 2 3 3 3 3 3 4 5 6 6 6 5
9 10 11 11 12 12 12 12 11 11 11 11 11 12 12 12 12 12 12 13 13 12 12 12 12 12 11 10 9 9 9 9 8 8 8 8 9 9 9 9 9 9 8 8 7 8 8 9 9 9 8 7 7 6 6 5 4 4 4 4 4 4 4 4 4 5 5 5 4
9 10 11 12 12 12 12 11 11 11 11 11 11 12 12 12 12 12 12 12 12 12 12 11 11 11 11 10 9 9 9 9 8 8 8 8 8 9 9 9 9 9 8 8 8 8 8 8 8 8 8 8 8 7 6 6 6 6 7 7 7 6 5 5 4 5 5 5 4
10 10 11 11 12 11 11 11 11 11 11 11 11 11 11 12 11 11 11 11 11 11 11 11 10 10 10 9 9 9 9 9 9 8 8 8 8 9 9 9 9 9 9 9 8 8 8 8 8 8 9 8 8 7 6 6 7 7 8 8 8 8 7 6 6 5 5 6 5
9 10 10 11 11 11 11 11 11 11 11 11 11 11 11 11 11 10 10 10 10 10 10 10 9 9 9 8 8 8 9 9 9 9 9 8 8 9 8 8 9 9 10 10 9 9 9 9 9 9 9 8 8 8 7 7 7 8 9 10 10 10 10 9 8 7 7 7 7
8 9 10 10 10 10 10 10 10 10 10 10 10 10 9 9 9 9 9 9 9 9 9 8 8 8 7 7 7 8 9 9 10 10 9 9 9 8 8 8 9 9 10 10 10 10 9 9 9 9 10 9 9 9 9 8 8 9 9 10 11 11 11 11 10 10 9 9 9
8 9 9 9 9 9 10 10 9 9 9 9 9 8 8 8 8 8 8 8 8 8 7 7 7 6 6 6 7 8 8 9 10 10 10 9 9 8 8 8 8 9 9 10 10 10 10 10 10 10 11 11 11 11 11 10 9 10 10 11 11 12 12 13 13 12 11 11 11
7 8 8 8 8 8 9 9 8 8 8 7 7 7 7 6 6 6 7 7 7 7 6 6 5 5 5 5 6 7 8 9 9 9 9 9 9 8 8 8 8 8 8 9 9 10 11 11 11 12 12 12 12 12 12 12 11 11 11 12 12 12 13 14 14 13 13 12 12
7 8 7 7 7 7 8 8 7 7 6 6 6 5 5 5 5 5 5 6 6 6 5 5 4 4 4 5 6 7 8 8 8 8 8 8 8 7 7 7 7 7 7 8 8 10 10 11 12 12 13 13 13 13 13 13 13 12 12 13 13 13 13 14 14 14 13 13 13
7 7 6 6 6 7 7 6 6 5 5 5 4 4 4 4 3 3 4 4 4 4 4 4 4 4 5 5 6 6 7 7 6 6 6 7 6 6 7 8 8 8 8 8 9 9 10 11 12 13 13 13 13 14 14 14 14 14 14 14 14 14 14 14 14 14 14 13 13
7 6 5 5 5 5 6 5 5 4 4 4 4 3 3 3 2 2 2 2 2 3 3 4 4 5 5 5 6 6 6 5 5 5 6 6 7 8 9 10 11 11 10 9 9 10 11 12 12 13 13 14 14 14 15 15 15 15 15 15 15 14 14 15 15 15 15 14 13
7 6 5 4 4 4 4 4 3 3 3 3 3 3 2 2 2 2 2 3 3 3 4 4 5 5 5 6 6 6 6 6 6 6 7 8 9 11 12 12 12 12 11 10 10 10 11 12 12 13 13 14 15 15 15 15 16 16 16 16 15 15 15 15 15 15 15 14 14
8 7 5 3 2 3 3 3 3 3 3 3 3 3 2 2 3 3 4 4 5 5 5 6 6 7 7 7 7 8 8 9 9 10 11 12 13 13 13 13 12 12 11 11 11 11 11 12 12 13 13 14 15 15 16 16 16 16 16 16 16 15 15 15 15 15 14 14 14
8 7 6 4 2 2 3 3 2 3 3 3 3 3 3 3 3 4 5 5 6 7 7 8 8 9 9 9 9 10 10 11 12 13 13 14 15 15 14 14 13 12 11 11 11 11 11 11 11 13 14 15 16 16 16 16 16 16 16 16 15 15 14 14 14 13 13 13 13
8 8 7 5 3 2 3 3 3 3 3 4 3 3 3 4 4 5 6 6 7 8 8 9 9 10 10 11 11 12 12 12 13 14 15 15 16 16 15 14 13 12 11 11 11 11 10 11 11 13 14 16 16 17 17 17 17 17 17 16 15 15 14 13 13 13 12 12 12
8 8 7 6 4 3 4 4 4 4 4 4 4 4 4 4 5 6 6 7 7 8 9 9 10 11 11 12 12 13 13 13 14 15 15 16 16 15 15 14 13 12 11 11 11 11 11 11 11 13 15 16 17 17 17 17 18 18 18 17 16 15 14 14 13 13 12 12 12
8 8 8 7 5 5 5 6 6 6 6 5 5 5 5 5 5 6 6 7 8 8 9 10 10 11 11 12 12 13 13 13 14 14 14 14 14 14 14 13 12 11 10 10 10 10 10 10 11 13 15 16 17 17 17 17 18 18 17 17 16 15 15 14 14 13 13 12 12
8 8 8 7 7 6 7 7 7 7 7 7 6 6 6 6 6 6 6 7 8 9 9 10 11 11 12 12 12 13 13 12 13 12 12 12 12 12 12 11 11 10 9 9 8 8 8 9 10 12 14 16 17 17 17 17 17 17 17 17 16 16 15 14 14 13 13 12 12
8 9 9 8 7 8 8 9 9 9 9 8 7 7 6 6 6 6 6 7 8 9 10 10 11 12 12 12 12 12 12 11 11 11 11 10 9 9 9 9 9 8 7 7 7 7 7 8 9 11 13 15 16 17 18 18 18 17 17 17 16 16 15 14 13 13 12 12 11
9 9 9 9 8 9 9 10 10 10 10 9 8 8 7 7 6 6 7 7 8 9 10 11 11 12 12 12 12 12 11 11 10 10 10 9 8 8 8 8 7 7 6 6 6 7 7 7 9 10 12 14 15 16 17 18 18 18 17 17 17 16 15 14 13 13 12 11 10
9 10 10 10 9 10 10 11 11 11 11 10 9 9 8 8 7 7 7 7 8 9 10 10 11 11 11 10 11 11 11 10 10 9 9 9 8 8 7 7 7 7 6 6 6 6 7 7 8 10 12 13 14 15 16 17 17 18 18 17 17 17 16 15 14 13 12 11 10
10 11 11 11 10 11 11 12 12 11 11 10 10 9 9 8 8 8 8 8 8 8 9 10 10 10 10 10 10 10 10 10 9 9 9 9 9 8 8 8 7 7 7 6 6 6 7 7 8 9 11 12 13 13 14 15 16 17 18 17 17 17 16 16 14 13 13 11 10
Wind_Direction
322 324 324 321 318 316 314 311 307 306 307 309 311 312 312 311 308 305 302 301 302 303 302 301 301 302 306 314 324 334 342 348 350 350 353 1 5 347 282 267 269 273 274 270 262 260 273 290 296 285 249 223 215 212 211 210 214 219 224 226 227 228 227 225 224 223 221 219 216
317 320 319 315 311 309 308 306 303 300 297 297 297 300 303 306 305 304 301 299 298 297 297 296 295 295 299 306 316 327 336 343 347 347 348 355 1 349 308 272 263 264 268 270 266 259 259 269 281 284 277 259 245 233 227 224 220 220 223 226 228 230 230 229 229 229 228 226 223
313 314 311 307 304 305 306 304 302 301 298 294 292 295 299 301 302 301 300 298 297 297 296 295 292 290 292 297 306 317 327 337 342 344 344 348 353 346 324 292 272 265 265 267 266 262 260 263 271 278 278 272 263 252 242 235 232 230 231 233 234 236 236 234 233 232 231 230 228
308 307 305 304 304 304 303 303 304 305 304 301 299 298 298 298 298 298 298 299 299 298 297 296 293 289 287 289 295 305 316 329 337 340 340 342 346 341 327 309 290 275 266 262 260 259 258 260 264 270 273 273 269 263 255 248 240 236 236 237 237 239 241 242 242 240 239 238 236
305 304 303 302 303 303 303 303 304 305 306 304 300 297 295 294 294 296 297 300 300 301 302 303 299 292 285 283 287 294 305 319 332 337 337 335 337 333 325 314 302 285 270 260 254 251 251 253 257 262 267 270 269 267 265 267 262 251 243 239 237 236 238 242 247 248 248 247 244
301 301 302 303 305 307 307 308 308 307 306 304 297 293 291 291 292 293 295 297 301 306 310 311 306 296 285 279 281 286 295 309 325 334 334 329 326 321 317 311 303 291 278 266 256 248 246 246 249 255 260 264 265 265 268 276 286 286 276 260 246 238 237 240 244 247 248 249 247
298 302 305 307 309 309 309 310 311 310 307 302 296 291 289 288 289 290 293 298 304 310 313 313 308 298 287 278 276 278 286 300 317 329 330 323 313 306 304 302 297 290 282 277 269 260 251 246 244 246 251 256 258 259 262 271 288 302 307 301 283 257 241 237 238 240 242 243 243
299 304 308 311 313 313 313 313 311 308 304 300 295 293 291 291 292 295 299 304 308 311 313 312 308 300 287 276 271 272 278 293 311 323 325 318 305 294 291 292 287 282 277 277 276 272 262 250 240 237 240 248 251 255 262 273 291 307 316 322 329 329 280 230 230 231 232 233 235
301 306 312 316 317 317 316 313 309 305 300 297 296 296 296 297 299 302 305 307 310 313 313 311 307 299 286 272 265 265 271 286 305 316 318 313 302 292 286 283 277 270 266 269 274 274 268 255 238 226 225 236 249 267 282 302 319 323 324 329 334 342 353 356 303 236 228 227 228
301 307 312 314 314 313 311 308 305 302 299 298 299 301 301 301 302 304 307 309 311 312 311 309 305 297 283 267 258 257 264 281 299 307 309 306 301 294 286 276 268 261 256 256 263 268 265 255 238 222 208 202 188 326 343 348 350 342 336 336 333 333 341 353 360 358 338 282 253
294 299 302 302 303 304 303 301 301 300 299 299 302 305 306 305 304 306 308 310 309 309 309 310 306 294 277 260 250 250 262 280 295 299 300 298 294 286 275 265 259 252 244 240 246 251 251 244 234 217 192 169 143 105 53 27 9 353 343 341 333 328 328 337 348 356 358 351 329
284 288 291 294 296 296 296 295 296 297 298 300 304 306 308 306 305 305 304 304 303 305 310 314 308 292 271 254 247 252 268 284 290 291 290 285 276 264 256 253 249 240 230 224 226 228 229 227 222 209 185 164 147 120 91 68 47 19 359 359 347 333 326 328 336 346 352 352 347
280 286 290 293 294 294 292 292 293 295 298 301 304 305 303 301 300 299 299 298 299 304 313 320 313 291 269 260 261 269 278 281 283 284 281 270 252 238 235 237 236 230 219 212 211 211 211 213 212 203 187 170 154 131 109 97 96 90 69 45 25 3 342 330 327 329 335 341 347
283 289 294 298 298 297 296 294 293 295 298 301 302 300 296 293 292 294 295 296 298 304 313 321 319 297 270 265 269 273 275 276 279 279 275 260 239 224 219 221 223 219 211 205 202 203 204 207 206 201 192 179 164 139 114 103 102 93 78 60 45 32 18 354 329 314 313 332 352
288 296 304 307 307 306 303 300 297 297 299 300 299 296 292 288 288 290 293 295 297 302 309 315 316 308 289 276 272 271 273 276 278 278 270 253 234 219 211 209 209 208 204 200 198 198 200 202 200 197 192 183 170 145 101 82 77 75 68 63 56 50 42 30 354 306 297 11 32
296 307 315 314 312 309 306 302 300 298 298 298 297 295 292 289 287 289 292 294 296 299 303 307 310 310 306 299 290 283 279 279 279 274 262 244 228 215 207 203 201 201 200 198 195 194 193 193 191 188 183 174 160 141 104 67 56 56 60 63 65 66 67 65 72 109 108 90 76
303 310 315 315 312 310 308 305 302 300 299 298 297 296 293 290 288 288 290 292 294 296 299 301 302 305 306 305 300 292 284 280 276 268 252 235 222 211 204 200 199 200 201 201 199 195 190 185 181 176 169 159 147 135 117 85 64 57 60 64 72 81 90 97 109 118 115 106 93
304 310 313 313 312 311 310 308 306 304 302 300 299 297 294 291 289 288 288 289 292 295 297 297 297 297 298 299 296 290 284 279 273 262 245 231 219 211 205 201 200 201 203 205 205 200 192 183 176 171 165 159 150 141 129 107 81 70 68 75 90 109 124 131 132 131 127 116 101
302 306 308 309 312 313 313 311 309 307 305 302 300 297 295 293 290 287 286 286 288 292 295 295 293 292 291 291 289 286 282 277 270 258 242 228 218 211 207 204 202 202 203 204 204 199 191 182 176 173 171 170 165 159 149 129 102 89 89 100 121 144 152 152 147 143 136 124 111
299 303 305 309 313 315 315 313 311 309 307 304 300 298 296 295 291 287 285 285 286 289 292 292 291 288 286 285 285 284 281 276 267 254 239 226 217 211 208 206 204 203 203 204 201 195 187 180 176 175 176 175 172 165 157 150 145 138 136 136 146 157 166 165 159 152 144 135 124
297 300 305 311 316 317 316 314 312 310 307 304 301 299 298 296 293 289 286 284 285 286 287 288 287 285 283 283 284 282 277 271 262 251 236 224 215 210 208 206 204 203 202 201 199 194 188 182 179 176 174 170 164 156 150 148 156 163 164 163 163 165 170 172 169 163 156 151 143
294 299 307 314 318 318 316 314 311 309 307 305 304 301 299 297 294 290 288 286 284 283 281 281 280 280 280 281 282 278 272 265 258 248 236 222 213 208 206 204 201 198 197 196 194 191 187 183 179 175 170 163 154 146 143 147 157 164 167 167 167 166 165 168 171 168 164 162 158
294 301 310 317 319 318 315 312 310 309 308 308 306 304 301 298 294 291 289 287 284 282 279 277 275 275 275 275 274 271 265 258 252 244 234 220 209 203 202 201 198 195 192 190 189 187 183 179 175 171 166 159 151 144 143 150 159 163 163 162 162 160 158 156 159 160 159 157 156
297 306 313 318 319 317 314 312 311 311 311 311 309 306 302 297 293 290 287 285 284 283 281 279 276 273 271 270 267 263 258 252 246 238 228 217 206 199 196 196 196 193 190 186 185 182 180 176 172 169 166 160 152 147 147 154 161 163 161 157 154 152 150 149 150 150 147 144 143
302 309 315 318 319 317 315 313 313 313 314 314 311 307 300 294 290 287 286 285 284 283 282 279 277 274 270 266 261 255 250 245 239 232 223 213 203 197 195 195 194 193 188 184 180 178 177 175 172 170 167 163 157 151 150 154 161 163 161 157 153 149 145 145 146 145 143 139 136
305 310 313 316 319 318 317 316 316 317 317 315 311 304 296 289 286 284 283 283 282 280 279 277 274 270 264 258 252 245 240 236 232 226 219 211 203 197 194 193 191 189 186 182 177 174 174 173 172 171 168 165 161 157 155 156 158 161 161 158 156 152 148 144 142 142 142 140 137
301 305 308 314 319 319 318 319 319 320 318 315 308 300 292 286 282 280 279 279 277 277 275 270 265 257 249 243 237 232 228 225 222 219 215 209 201 195 191 188 184 181 178 176 174 173 173 172 171 170 168 165 161 158 155 153 156 160 160 158 157 155 152 148 145 144 143 142 141
291 296 302 311 317 319 320 322 322 322 319 313 305 296 288 281 275 272 270 270 270 268 264 256 248 240 231 223 221 219 217 215 213 210 208 203 196 189 182 175 168 165 163 165 168 171 172 171 169 168 165 163 159 156 155 154 156 159 161 160 159 157 154 151 150 149 147 146 146
279 284 293 304 314 319 320 321 322 320 316 307 297 286 277 267 259 256 255 253 250 245 237 228 222 215 207 202 203 205 206 203 203 203 200 194 185 174 164 155 148 146 148 155 161 167 169 169 166 165 163 160 158 155 154 155 157 160 162 163 162 159 156 153 152 152 152 151 150
267 271 279 296 313 317 316 316 317 314 305 293 281 268 255 241 230 222 214 209 202 197 196 196 194 188 183 180 183 184 184 184 188 190 187 177 163 152 145 142 140 141 144 150 155 161 164 165 164 162 160 159 157 155 155 155 158 161 162 163 163 161 158 155 154 153 153 153 153
257 258 265 283 307 312 309 306 305 299 288 274 261 246 228 205 181 165 154 150 148 154 163 169 169 166 163 164 163 161 159 160 162 165 162 155 146 140 138 139 140 141 143 146 150 154 159 162 162 160 159 159 157 156 155 155 157 158 160 160 161 161 160 158 156 155 154 155 153
251 248 248 258 290 303 298 287 280 273 265 253 242 225 199 170 152 142 138 136 136 138 142 146 146 146 146 148 148 146 146 146 147 148 147 143 139 137 136 137 138 139 140 142 145 150 155 160 161 161 160 159 157 155 154 152 153 153 154 156 157 159 160 159 158 157 156 155 154
246 241 235 233 251 277 271 255 243 240 240 234 225 207 182 159 147 140 136 135 134 132 130 130 129 129 130 132 133 135 136 138 139 139 139 139 137 136 135 134 133 134 136 138 141 145 150 156 159 162 162 160 157 154 151 150 149 150 150 152 154 157 159 159 158 156 155 153 153
242 236 228 220 220 231 234 224 217 214 217 215 209 195 176 157 145 137 134 134 135 133 131 129 127 126 126 128 129 128 130 132 133 134 135 137 137 135 131 128 128 130 132 133 135 138 143 150 156 161 163 162 158 154 151 149 147 147 147 148 151 153 155 155 153 152 151 150 149
237 232 224 215 208 205 207 205 200 199 199 198 193 185 173 160 147 137 133 135 137 136 133 131 130 129 129 129 128 128 127 127 129 131 133 135 135 132 126 123 122 124 127 129 131 134 140 147 154 161 163 162 159 155 152 148 145 144 144 144 145 147 148 148 146 145 145 145 144
232 226 220 213 203 196 194 193 191 188 186 185 182 178 171 163 154 144 139 138 138 136 132 131 131 129 127 126 125 125 125 125 127 129 131 133 133 129 124 121 119 119 122 126 130 134 141 149 157 162 163 161 157 154 151 148 144 141 141 140 139 140 140 140 138 137 137 137 138
226 221 217 212 203 194 190 189 186 182 179 178 178 177 172 165 158 151 146 143 139 136 133 133 130 128 126 125 123 123 124 127 127 128 129 131 131 129 126 123 120 120 122 126 130 135 142 152 160 164 164 160 156 153 149 146 142 140 138 137 136 135 135 134 132 131 130 130 130
222 219 215 210 202 193 188 187 185 180 177 178 181 182 180 174 165 157 153 149 142 138 135 134 131 129 129 129 128 127 127 128 129 128 128 129 130 131 130 128 126 125 126 128 132 137 144 153 162 166 165 161 157 153 149 145 141 138 137 135 134 133 132 130 128 126 124 123 123
218 215 212 208 201 193 189 187 184 181 179 181 184 186 186 182 173 167 162 158 150 144 139 135 132 131 132 134 133 131 130 130 131 131 130 129 131 134 135 133 130 130 132 134 137 140 146 153 161 167 167 164 159 155 151 146 141 138 136 135 133 131 129 128 126 124 122 120 119
214 212 210 207 200 194 190 187 185 183 183 184 186 187 186 182 177 173 169 164 157 151 144 139 136 135 137 138 136 135 133 134 135 135 135 134 135 138 138 135 133 133 135 138 142 144 147 153 162 168 169 165 161 156 152 147 142 138 136 135 133 132 130 130 130 128 126 125 121
212 211 209 206 202 196 191 188 185 184 185 186 187 187 186 183 178 174 171 167 161 155 150 145 142 142 143 143 142 140 138 137 138 140 140 140 140 139 139 137 136 137 139 141 145 147 150 157 165 171 171 167 162 158 154 150 144 140 138 138 137 136 135 135 135 134 132 129 125